Wind_Speed
61 61 60 59 58 57 55 53 51 50 49 49 48 46 45 44 45 46 44 45 46 45 42 39 37 36 36 37 37 36 36 36 36 35 36 37 38 39 40 41 42 43
61 60 59 58 57 55 53 51 49 47 46 46 45 44 41 41 44 45 42 43 44 45 43 41 39 37 37 38 38 37 37 36 36 36 36 37 37 38 39 39 40 41
60 58 57 56 54 53 51 48 47 45 44 43 43 42 39 39 43 46 44 43 44 46 46 44 42 40 38 39 39 39 38 38 38 38 38 38 38 39 40 40 41 41
57 56 54 53 51 48 46 44 43 42 41 41 40 40 39 38 41 44 47 47 45 47 48 46 45 44 41 40 40 39 39 39 39 39 40 41 41 41 42 42 42 42
54 52 50 48 46 43 41 40 39 39 38 38 38 38 38 38 40 41 44 45 43 44 46 46 46 45 43 41 40 39 39 40 41 42 42 42 43 43 44 43 43 43
51 48 46 44 41 39 37 36 36 36 36 36 35 35 35 36 38 39 39 41 41 42 43 44 44 43 41 40 40 40 41 41 43 44 44 43 44 45 45 44 43 42
47 44 41 39 37 35 34 34 34 35 35 35 34 34 34 34 36 37 37 38 39 40 41 41 41 41 41 40 41 42 43 44 45 45 44 44 45 46 45 44 43 42
43 40 38 36 35 34 33 34 34 34 34 34 34 34 34 36 38 39 40 39 39 38 39 40 40 41 41 42 43 44 46 47 46 44 44 45 46 47 46 44 42 42
39 37 36 35 34 34 34 34 34 34 35 35 35 35 35 36 39 42 44 44 44 43 42 42 42 43 44 45 46 47 48 49 47 46 47 48 47 47 46 44 42 42
37 36 35 35 34 34 34 34 35 35 36 36 36 36 36 37 38 41 43 45 46 46 46 45 44 45 46 46 47 48 48 48 48 48 47 47 46 46 45 45 44 43
37 36 35 35 35 35 35 35 35 36 37 37 37 37 38 38 39 40 41 43 45 45 46 46 45 45 45 46 47 47 47 47 46 46 46 46 46 46 47 47 46 46
37 36 35 35 35 36 36 36 36 36 37 37 38 38 38 38 39 40 41 42 43 44 44 45 45 45 45 46 46 47 47 47 47 48 48 48 48 49 49 49 49 49
36 36 35 35 36 36 37 37 37 37 37 38 38 38 38 38 39 40 41 41 42 43 43 44 44 44 44 44 45 45 46 46 47 48 49 49 50 50 50 49 50 50
36 36 35 36 36 37 37 37 38 39 39 39 40 40 39 39 39 39 40 41 41 42 42 43 43 43 43 43 43 43 44 44 45 46 47 47 47 47 47 47 48 48
36 36 36 37 37 37 38 38 38 39 40 41 41 41 40 40 39 39 39 40 40 41 41 41 41 41 41 42 42 42 42 43 43 44 44 44 44 43 43 43 43 43
36 37 37 38 38 38 39 39 39 40 41 42 41 40 40 39 39 39 39 39 39 39 39 39 39 40 40 40 40 40 41 42 42 42 42 41 41 40 40 39 39 39
37 38 38 39 39 39 40 40 40 41 41 41 40 39 38 37 36 37 37 38 38 37 37 37 37 38 38 38 38 39 39 40 40 40 39 39 39 38 37 37 37 36
38 38 39 39 39 39 40 39 39 40 41 40 38 36 35 34 34 34 35 35 35 35 35 36 36 36 36 37 38 38 38 38 38 38 37 37 37 36 35 34 34 34
38 39 39 39 39 39 39 39 38 39 39 37 36 34 34 33 33 33 33 33 34 34 34 34 34 34 35 36 36 35 35 35 35 36 37 37 36 35 34 33 32 33
38 39 39 39 39 39 39 38 38 38 37 35 34 33 33 33 33 33 32 32 32 33 33 32 31 32 33 33 33 33 32 32 34 35 36 36 35 34 33 33 33 33
39 39 39 39 39 39 38 38 38 37 35 33 33 32 32 32 32 32 31 31 31 32 32 30 29 30 31 31 30 29 29 31 33 35 35 35 35 34 33 33 33 33
39 39 39 39 39 39 38 37 37 36 34 32 32 31 31 31 31 30 30 30 30 30 30 29 28 29 30 29 28 28 28 31 32 33 34 34 34 33 33 33 33 33
39 39 39 38 38 38 38 37 36 35 33 32 31 30 29 29 29 28 29 29 28 28 27 26 26 27 27 27 27 27 29 31 32 32 32 32 32 32 31 30 30 30
39 39 38 38 38 38 38 37 36 35 33 31 31 29 28 28 27 26 27 28 27 26 25 23 22 23 23 23 24 25 27 29 29 29 28 28 27 27 26 26 26 25
39 38 38 38 38 38 37 37 36 34 32 30 29 28 27 26 26 24 25 26 25 23 22 21 20 19 19 19 20 21 23 24 23 22 22 22 22 22 22 22 22 22
38 39 39 39 38 38 37 36 35 33 31 29 28 26 26 25 24 23 23 23 23 21 20 19 18 18 17 17 17 18 18 18 17 17 17 18 18 19 19 19 19 20
Wind_Direction
301 302 302 302 301 300 298 296 294 291 289 287 286 284 282 279 279 283 286 287 288 288 288 288 289 287 285 283 282 282 284 286 286 286 286 285 283 281 279 277 275 272
304 304 304 303 302 301 299 297 295 291 288 285 284 282 278 273 274 277 280 281 282 285 286 286 288 288 285 282 280 279 281 284 286 287 287 287 286 284 283 281 279 277
305 305 305 304 303 302 300 298 296 293 289 286 284 282 277 271 271 273 275 277 278 281 284 285 287 288 286 283 279 277 278 281 284 286 288 288 286 285 285 285 282 280
306 306 305 305 304 302 300 298 296 294 292 289 286 283 278 271 270 273 273 273 275 277 280 284 285 285 284 282 279 276 276 279 281 284 286 287 287 285 286 286 284 281
309 309 308 306 305 303 301 298 296 295 294 292 289 286 282 274 271 274 272 269 269 272 277 281 283 283 282 280 278 276 276 278 280 282 284 284 285 285 285 287 285 281
312 311 309 308 306 304 302 300 299 298 297 295 292 288 284 278 273 273 273 270 269 270 274 279 281 281 281 278 277 277 277 279 281 283 282 281 282 284 285 287 285 280
313 311 309 308 306 305 304 302 301 300 298 297 294 289 282 279 276 275 275 274 272 270 272 276 278 280 280 279 278 278 278 281 282 281 279 279 281 283 285 287 284 278
313 311 309 308 307 305 304 303 301 300 298 296 294 290 283 277 275 276 276 276 275 274 274 275 275 277 278 278 277 278 280 282 282 279 278 279 282 283 284 285 282 277
313 311 310 308 307 305 303 302 300 298 297 294 292 290 285 279 275 274 274 276 277 278 277 276 275 275 276 276 277 278 278 279 280 279 279 281 283 283 284 283 280 277
313 311 310 309 307 305 303 301 300 298 296 294 292 289 287 283 279 276 274 275 276 277 277 276 275 274 274 274 275 275 275 277 279 280 281 282 282 281 281 280 279 279
313 311 310 309 307 305 304 302 301 299 297 295 293 290 287 285 282 279 277 276 276 276 277 277 276 274 273 273 273 274 275 276 278 278 278 278 277 277 278 278 279 280
312 311 310 309 307 307 307 306 304 302 300 298 295 292 289 286 283 281 279 277 276 276 276 276 276 275 274 273 274 274 274 274 274 274 274 274 274 275 276 277 279 280
310 310 309 308 308 309 309 309 308 306 303 301 298 295 292 288 285 283 281 279 278 277 277 276 276 276 275 275 274 274 274 274 274 274 274 274 275 276 277 278 279 280
309 309 308 308 308 309 309 309 308 307 305 303 300 297 294 291 287 285 283 281 280 279 278 278 277 277 276 276 275 275 275 275 274 274 275 275 276 277 278 278 279 280
310 309 309 309 309 309 309 308 308 307 306 304 302 299 296 293 290 287 284 282 281 280 279 278 278 278 277 277 276 275 275 274 274 275 275 276 277 277 277 277 277 277
311 311 310 310 310 309 309 309 309 309 308 306 304 301 298 295 292 290 287 285 283 281 280 279 278 278 277 277 276 276 275 274 274 274 275 275 275 275 275 275 275 275
313 312 311 311 310 310 310 310 310 310 309 307 305 302 300 297 295 293 290 289 287 284 282 280 279 278 278 277 277 276 276 275 275 275 275 275 274 273 273 273 273 272
314 313 312 311 310 310 310 310 310 310 309 307 305 303 301 299 298 295 293 291 289 287 285 283 282 281 280 278 277 276 275 275 274 274 274 274 274 273 273 273 272 272
315 313 312 311 311 310 310 310 311 310 309 307 305 303 303 302 300 298 295 293 290 288 286 285 285 283 281 279 277 276 275 273 271 271 272 273 273 274 274 275 275 274
314 313 313 312 312 311 311 312 312 312 310 306 304 304 304 303 301 299 297 294 292 290 289 288 287 284 282 280 279 278 275 272 269 269 271 273 274 275 276 276 276 275
314 313 313 312 312 312 312 312 313 312 310 306 305 305 305 304 302 301 299 297 294 293 291 290 288 284 282 281 281 279 275 271 269 270 272 274 276 277 277 276 275 275
313 313 313 312 312 312 312 313 313 312 309 306 306 306 306 305 304 303 301 299 297 295 293 291 288 284 283 282 281 278 275 272 272 273 275 277 278 278 277 276 275 274
313 312 312 312 312 312 312 313 313 312 309 307 307 307 307 306 305 304 304 302 300 299 297 296 291 286 284 283 280 277 275 274 275 276 277 278 278 278 277 276 274 273
312 312 312 312 312 312 312 312 312 311 308 307 307 307 307 305 305 307 307 305 305 304 302 301 297 292 289 285 281 278 276 276 278 279 280 280 278 277 276 274 272 271
313 312 312 312 312 312 312 312 311 310 308 306 306 306 305 305 306 309 309 307 307 307 305 304 301 298 295 291 286 281 280 282 283 283 281 280 277 274 271 269 267 265
313 313 312 312 311 310 310 310 310 309 306 304 304 304 305 305 307 309 309 309 308 307 306 306 303 301 299 295 289 286 286 288 287 283 279 275 272 269 267 265 263 262
Height
2994 2990 2987 2984 2981 2978 2975 2972 2970 2968 2965 2963 2962 2960 2959 2957 2954 2952 2950 2948 2947 2946 2946 2946 2945 2945 2944 2943 2942 2942 2941 2940 2939 2938 2937 2936 2935 2934 2934 2933 2932 2932
2986 2983 2979 2976 2973 2970 2967 2965 2962 2960 2958 2956 2955 2953 2952 2952 2950 2947 2945 2943 2941 2940 2940 2940 2940 2940 2939 2938 2937 2936 2935 2935 2934 2933 2933 2932 2930 2929 2928 2928 2927 2926
2980 2976 2973 2969 2966 2963 2960 2957 2955 2953 2951 2949 2948 2947 2946 2945 2944 2942 2940 2938 2936 2935 2935 2935 2934 2934 2934 2933 2932 2931 2930 2929 2929 2928 2928 2927 2926 2925 2924 2922 2922 2921
2974 2970 2966 2962 2959 2956 2953 2950 2948 2946 2944 2942 2941 2940 2939 2939 2939 2937 2935 2934 2932 2930 2929 2929 2929 2928 2928 2928 2927 2926 2925 2924 2923 2923 2922 2921 2921 2920 2919 2917 2916 2916
2966 2963 2959 2955 2952 2949 2947 2944 2942 2940 2938 2936 2935 2934 2933 2932 2932 2932 2930 2929 2927 2925 2924 2923 2923 2922 2922 2922 2921 2920 2919 2919 2918 2918 2917 2916 2915 2914 2913 2912 2911 2910
2959 2956 2952 2949 2946 2944 2942 2939 2937 2935 2933 2931 2930 2929 2927 2926 2926 2926 2925 2924 2923 2921 2919 2918 2917 2916 2916 2916 2915 2914 2913 2913 2912 2912 2911 2910 2909 2908 2907 2906 2905 2905
2953 2950 2947 2944 2942 2939 2937 2935 2933 2931 2929 2927 2925 2924 2923 2921 2921 2920 2920 2919 2918 2917 2915 2914 2912 2911 2910 2910 2909 2908 2907 2907 2906 2906 2905 2904 2903 2902 2901 2900 2899 2899
2948 2945 2942 2940 2937 2935 2933 2931 2929 2926 2924 2922 2921 2919 2918 2917 2916 2915 2914 2913 2912 2911 2910 2909 2907 2906 2905 2904 2903 2902 2901 2900 2900 2899 2899 2898 2897 2896 2895 2894 2893 2893
2943 2940 2938 2935 2933 2931 2928 2926 2924 2922 2920 2918 2916 2914 2913 2911 2910 2909 2908 2907 2906 2905 2904 2903 2902 2901 2899 2898 2897 2896 2895 2894 2893 2893 2892 2891 2891 2890 2889 2888 2887 2887
2939 2936 2933 2931 2929 2926 2924 2922 2920 2917 2915 2913 2911 2909 2908 2906 2905 2903 2902 2901 2900 2898 2898 2897 2896 2895 2893 2892 2891 2890 2889 2888 2887 2886 2885 2884 2884 2883 2882 2881 2881 2881
2935 2932 2929 2927 2924 2922 2920 2917 2915 2913 2910 2908 2906 2904 2902 2901 2899 2897 2896 2894 2893 2892 2891 2890 2889 2888 2887 2886 2885 2884 2883 2882 2880 2879 2879 2878 2877 2877 2876 2875 2874 2874
2930 2928 2925 2923 2920 2917 2915 2912 2910 2908 2905 2903 2901 2898 2897 2895 2893 2891 2890 2888 2887 2886 2885 2883 2882 2881 2880 2879 2878 2877 2876 2875 2874 2873 2872 2871 2871 2870 2869 2869 2868 2868
2927 2924 2921 2919 2916 2913 2910 2908 2905 2902 2900 2897 2895 2892 2890 2889 2887 2885 2883 2882 2880 2879 2878 2876 2875 2874 2873 2872 2871 2870 2869 2868 2867 2866 2865 2865 2864 2864 2863 2862 2862 2861
2922 2920 2917 2914 2912 2909 2906 2903 2900 2897 2894 2892 2889 2886 2884 2882 2880 2878 2877 2875 2874 2872 2871 2870 2868 2867 2867 2866 2865 2864 2863 2862 2861 2859 2859 2858 2858 2857 2857 2856 2855 2855
2918 2915 2913 2910 2907 2904 2901 2898 2895 2892 2889 2886 2883 2880 2878 2875 2874 2872 2870 2869 2867 2866 2864 2863 2862 2861 2860 2859 2858 2857 2856 2855 2854 2853 2852 2852 2852 2851 2850 2849 2849 2848
2913 2911 2908 2905 2902 2899 2896 2893 2890 2887 2884 2880 2877 2874 2871 2869 2867 2865 2864 2862 2861 2859 2858 2857 2856 2855 2854 2854 2852 2851 2850 2849 2848 2847 2847 2846 2846 2845 2844 2844 2843 2843
2909 2906 2903 2900 2897 2894 2891 2888 2885 2882 2878 2875 2871 2869 2866 2864 2861 2859 2858 2856 2854 2853 2852 2851 2850 2849 2849 2848 2847 2845 2844 2842 2842 2841 2841 2840 2840 2839 2839 2839 2838 2837
2904 2901 2898 2895 2892 2889 2886 2883 2880 2877 2873 2870 2866 2863 2861 2859 2857 2854 2852 2851 2849 2847 2846 2845 2844 2844 2843 2841 2840 2839 2838 2837 2836 2835 2835 2834 2833 2833 2834 2833 2833 2832
2899 2896 2893 2890 2887 2884 2881 2879 2875 2872 2868 2865 2861 2859 2857 2854 2852 2850 2848 2846 2843 2842 2840 2840 2839 2838 2836 2835 2834 2833 2833 2832 2830 2829 2829 2828 2828 2828 2828 2828 2828 2827
2895 2891 2888 2885 2882 2879 2876 2873 2870 2867 2863 2860 2857 2855 2852 2850 2847 2845 2843 2841 2838 2837 2835 2835 2834 2832 2830 2829 2829 2828 2828 2826 2825 2824 2823 2823 2823 2824 2823 2823 2823 2822
2890 2887 2884 2881 2877 2874 2871 2868 2865 2862 2859 2855 2853 2850 2848 2845 2843 2840 2838 2836 2834 2832 2830 2830 2829 2827 2825 2824 2824 2823 2823 2821 2819 2819 2819 2819 2819 2819 2818 2818 2817 2817
2886 2882 2879 2876 2873 2870 2866 2863 2860 2857 2854 2851 2848 2846 2844 2841 2838 2836 2833 2831 2829 2827 2826 2825 2824 2822 2820 2820 2820 2819 2818 2816 2815 2815 2814 2814 2814 2813 2813 2812 2812 2811
2881 2878 2875 2872 2868 2865 2862 2859 2856 2852 2849 2847 2844 2842 2840 2837 2834 2832 2829 2827 2825 2823 2821 2820 2819 2817 2816 2815 2815 2814 2813 2811 2811 2811 2810 2809 2809 2808 2808 2807 2807 2806
2877 2873 2870 2867 2864 2861 2858 2854 2851 2848 2845 2843 2840 2838 2836 2833 2831 2829 2826 2823 2821 2819 2817 2816 2815 2813 2812 2811 2810 2809 2808 2807 2807 2806 2806 2805 2804 2803 2803 2802 2802 2801
2872 2869 2866 2862 2859 2856 2853 2850 2847 2844 2841 2839 2836 2834 2832 2830 2827 2825 2823 2820 2818 2816 2814 2813 2811 2810 2809 2808 2807 2805 2804 2803 2803 2803 2802 2801 2800 2799 2799 2798 2798 2797
2867 2864 2861 2858 2855 2852 2849 2846 2843 2840 2837 2835 2833 2830 2828 2826 2824 2822 2820 2817 2815 2813 2812 2810 2808 2807 2806 2805 2804 2803 2802 2801 2800 2799 2798 2797 2797 2796 2795 2795 2794 2794